Home > Weather > Taichung > Past weeks

Flag for Taiwan Weather for the Past 2 Weeks in Taichung, Taiwan

Now
68 °F

Passing clouds.


Feels Like: 68 °F
Forecast: 74 / 84 °F
Wind: 13 mph from East

Location: Chiang Kai Shek

Current Time: Apr 29, 2016 at 5:58:14 AM

Latest Report: Apr 29, 2016 at 5:00 AM


Visibility: N/A

Pressure: 29.95 "Hg

Humidity: 64%

Dew Point: 55 °F

Location of TaichungLocation

Historic Weather in Taichung — Graph

°F

Taichung Temperature Yesterday

Maximum temperature yesterday: 77 °F (at 12:00 AM)
Minimum temperature yesterday: 68 °F (at 10:00 PM)
Average temperature yesterday: 73 °F

High & Low Weather Summary for the Past Weeks

 TemperatureHumidityPressure
High88 °F (Apr 21, 1:30 PM)100% (Apr 16, 2:56 AM)30.12 "Hg (Apr 16, 2:56 AM)
Low63 °F (Apr 18, 2:30 PM)61% (Apr 19, 1:30 PM)29.68 "Hg (Apr 27, 2:00 PM)
Average74 °F86%29.88 "Hg
* Reported Apr 14 4:00 AM — Apr 29 4:00 AM, Taichung, Weather by CustomWeather, © 2016

Note: Actual official high and low records may vary slightly from our data, if they occured in-between our weather recording intervals... More about our weather records

Advertising

Taichung Weather History for the Previous 24 Hours

Scroll right to see more
 ConditionsComfort  
Time TempWeatherWind HumidityBarometerVisibility
4:00 AM
Fri, Apr 29
68 °FPassing clouds.13 mph64%29.95 "HgN/A
3:30 AM68 °FPassing clouds.14 mph64%29.95 "HgN/A
3:00 AM68 °FPassing clouds.13 mph64%29.95 "HgN/A
2:30 AM68 °FPassing clouds.13 mph64%29.95 "HgN/A
2:00 AM68 °FPassing clouds.15 mph64%29.95 "HgN/A
1:30 AM68 °FPassing clouds.13 mph64%29.98 "HgN/A
1:00 AM68 °FPassing clouds.15 mph64%29.98 "HgN/A
12:30 AM68 °FPassing clouds.15 mph69%29.98 "HgN/A
12:00 AM68 °FPassing clouds.17 mph69%29.98 "HgN/A
11:30 PM
Thu, Apr 28
68 °FPassing clouds.15 mph69%29.98 "HgN/A
11:00 PM68 °FPassing clouds.16 mph69%29.98 "HgN/A
10:30 PM68 °FPassing clouds.16 mph73%29.98 "HgN/A
10:00 PM68 °FPassing clouds.14 mph73%29.98 "Hg6 mi
9:30 PM70 °FPassing clouds.14 mph73%29.98 "Hg6 mi
9:00 PM70 °FPassing clouds.14 mph73%29.98 "Hg6 mi
8:30 PM70 °FPassing clouds.14 mph73%29.98 "Hg5 mi
8:00 PM70 °FPartly cloudy.14 mph73%29.95 "Hg5 mi
7:30 PM70 °FPartly cloudy.13 mph73%29.95 "Hg5 mi
7:00 PM70 °FPartly cloudy.12 mph73%29.92 "Hg4 mi
6:30 PM72 °FPartly cloudy.13 mph69%29.92 "Hg5 mi
6:00 PM72 °FBroken clouds.14 mph73%29.92 "Hg5 mi
5:30 PM72 °FPartly sunny.17 mph78%29.89 "Hg5 mi
5:00 PM72 °FPartly sunny.18 mph78%29.89 "Hg5 mi
4:00 PM72 °FPartly sunny.18 mph78%29.89 "Hg6 mi
3:30 PM73 °FPartly sunny.21 mph78%29.89 "Hg4 mi
1:30 PM73 °FBroken clouds.17 mph78%29.89 "HgN/A
1:00 PM73 °FBroken clouds.17 mph78%29.89 "HgN/A
12:00 PM73 °FPartly sunny.16 mph78%29.89 "HgN/A
11:30 AM73 °FPartly sunny.18 mph83%29.89 "Hg6 mi
11:00 AM73 °FPartly sunny.17 mph78%29.89 "Hg5 mi
10:00 AM73 °FPartly sunny.21 mph83%29.89 "Hg5 mi
9:30 AM73 °FPartly sunny.22 mph83%29.89 "Hg4 mi
9:00 AM73 °FPartly sunny.20 mph83%29.89 "Hg4 mi
8:30 AM73 °FBroken clouds.16 mph83%29.86 "Hg4 mi
7:30 AM73 °FPartly sunny.17 mph83%29.86 "Hg4 mi
6:30 AM73 °FPartly sunny.15 mph89%29.83 "Hg4 mi
6:00 AM73 °FSprinkles. Partly sunny.15 mph89%29.80 "Hg3 mi
5:30 AM73 °FSprinkles. Partly sunny.20 mph94%29.80 "Hg3 mi
5:00 AM75 °FScattered showers. Passing clouds.12 mph89%29.77 "Hg5 mi
Weather by CustomWeather, © 2016

See weather overviewHow to use our weather pages